CST,Max TemperatureF,Mean TemperatureF,Min TemperatureF,Max Dew PointF,MeanDew PointF,Min DewpointF,Max Humidity, Mean Humidity, Min Humidity, Max Sea Level PressureIn, Mean Sea Level PressureIn, Min Sea Level PressureIn, Max VisibilityMiles, Mean VisibilityMiles, Min VisibilityMiles, Max Wind SpeedMPH, Mean Wind SpeedMPH, Max Gust SpeedMPH,PrecipitationIn, CloudCover, Events, WindDirDegrees
2013-12-1,21,20,19,18,16,16,86,84,80,30.19,30.08,29.92,10,7,2,10,3,,0.00,8,Snow,178
2013-12-2,24,22,19,19,17,14,86,81,74,29.91,29.80,29.73,10,7,1,24,14,29,0.00,7,Snow,68
2013-12-3,23,21,19,18,17,16,86,82,80,29.98,29.90,29.82,10,10,5,21,16,24,0.00,8,Snow,49
2013-12-4,19,16,12,14,10,9,85,81,73,29.98,29.82,29.65,10,3,1,21,16,24,0.00,8,Snow,35
2013-12-5,12,4,-5,9,0,-11,85,77,71,30.18,29.88,29.64,10,7,1,18,12,26,0.00,4,Snow,294
2013-12-6,-2,-8,-14,-9,-14,-20,84,74,66,30.49,30.36,30.19,10,10,3,13,9,16,0.00,0,Snow,260
2013-12-7,-9,-16,-23,-17,-23,-29,77,72,64,30.50,30.45,30.36,10,10,5,13,8,,0.00,0,,221
2013-12-8,1,-10,-22,-2,-14,-27,85,74,69,30.35,30.14,29.93,10,8,2,14,9,,0.00,3,Snow,192
2013-12-9,-2,-9,-16,-9,-18,-24,84,74,65,29.92,29.86,29.79,10,8,2,13,8,16,0.00,1,Snow,235
2013-12-10,-4,-12,-20,-9,-17,-27,78,74,65,30.25,29.95,29.79,10,9,2,12,6,16,0.00,0,Snow,264
2013-12-11,-7,-14,-20,-17,-20,-27,77,71,64,30.35,30.26,30.14,10,10,2,14,9,16,0.00,0,Snow,228
2013-12-12,1,-6,-14,-6,-11,-20,84,73,65,30.27,30.18,30.13,10,10,1,14,5,,0.00,4,Snow,301
2013-12-13,-5,-7,-9,-15,-16,-18,71,66,55,30.41,30.36,30.28,10,10,10,13,8,,0.00,3,,54
2013-12-14,0,-8,-18,-8,-14,-26,78,73,65,30.37,30.21,30.12,10,7,2,8,5,,0.00,5,Snow,8
2013-12-15,0,-16,-29,-9,-23,-36,78,71,63,30.19,30.12,29.91,10,10,10,17,3,,0.00,2,Snow,184
2013-12-16,24,12,0,18,8,-9,85,75,66,29.94,29.74,29.68,10,8,1,21,13,26,0.00,4,Snow,218
2013-12-17,24,8,-9,19,0,-15,80,71,56,30.04,29.91,29.69,10,8,1,23,11,32,0.00,2,Snow,280
2013-12-18,15,6,-2,9,0,-8,79,72,66,29.99,29.72,29.55,10,10,7,21,9,24,0.00,2,Snow,54
2013-12-19,0,-6,-13,-8,-11,-18,84,74,66,30.27,30.18,29.99,10,10,4,13,6,,0.00,0,Snow,310
2013-12-20,8,-2,-11,1,-7,-17,85,75,67,30.12,29.93,29.82,10,10,4,13,7,,0.00,0,Snow,205
2013-12-21,3,-4,-11,-2,-11,-17,84,74,66,30.18,30.03,29.84,10,10,7,13,3,,0.00,0,,19
2013-12-22,1,-6,-14,-9,-15,-22,77,69,55,30.40,30.25,30.16,10,10,10,12,8,,0.00,0,,359
2013-12-23,-11,-18,-25,-20,-26,-33,77,70,63,30.53,30.45,30.33,10,10,10,10,5,,0.00,0,,257
2013-12-24,10,-5,-20,3,-8,-27,79,70,55,30.33,30.07,29.94,10,6,1,21,13,25,0.00,5,Snow,187
2013-12-25,12,8,3,9,2,-2,85,75,67,30.08,30.04,29.97,10,9,2,20,6,23,0.00,7,Snow,298
2013-12-26,19,6,-5,12,0,-9,85,77,71,30.08,30.04,29.93,10,10,7,14,2,,0.00,6,,168
2013-12-27,33,26,19,27,23,12,86,81,74,29.94,29.81,29.65,10,9,3,23,12,24,0.00,5,,248
2013-12-28,24,5,-16,21,3,-24,86,78,70,30.38,30.03,29.82,10,6,1,25,11,29,0.00,6,Snow,15
2013-12-29,-11,-19,-27,-20,-26,-35,77,70,63,30.42,30.29,30.13,10,10,10,9,6,,0.00,0,,246
2013-12-30,-7,-16,-25,-15,-25,-35,77,71,63,30.21,30.16,30.11,10,10,4,9,2,,0.00,0,Snow,243
2013-12-31,-18,-22,-27,-26,-30,-35,76,70,63,30.43,30.30,30.13,10,10,10,10,7,,0.00,0,,277